Location: Oberstdorf
(47.4188°N, 10.2969°E)
Time: 00:19:32
(UTC+01:00)

ISS - Pass Details

Date: 10 January 2018
Orbit: 401 x 406 km, 51.6° (Epoch: 17 January)

Event Time Altitude Azimuth Distance (km) Brightness Sun altitude
Exits shadow 06:32:42 33° 303° (WNW) 712 -3.1 -14.9°
Maximum altitude 06:34:02 74° 21° (NNE) 426 -3.8 -14.7°
Drops below altitude 10° 06:37:19 10° 108° (ESE) 1,463 0.5 -14.2°
Sets 06:39:24 0° 110° (ESE) 2,322 2.0 -13.8°
